| time (UTC) | temp C | wind direction | speed KPH | gust KPH | rain 1hr cm | rain 24hr cm | rain mn cm | humidity % | barometer mb |
| 20260507030016 | 13 | 240 | 0.0 | 6.4 | 0.00 | 0.00 | 0.00 | 100 | 1006.8 |
| 20260507024508 | 13 | 198 | 0.0 | 4.8 | 0.00 | 0.00 | 0.00 | 100 | 1006.6 |
| 20260507023046 | 13 | 227 | 0.0 | 6.4 | 0.00 | 0.00 | 0.00 | 100 | 1006.9 |
| 20260507021542 | 13 | 298 | 0.0 | 3.2 | 0.00 | 0.00 | 0.00 | 100 | 1007.1 |
| 20260507020021 | 13 | 150 | 0.0 | 4.8 | 0.00 | 0.00 | 0.00 | 100 | 1007.1 |
| 20260507014517 | 13 | 220 | 0.0 | 3.2 | 0.00 | 0.00 | 0.00 | 100 | 1006.7 |
| 20260507013056 | 13 | 192 | 0.0 | 8.0 | 0.00 | 0.00 | 0.00 | 100 | 1006.9 |
| 20260507011558 | 13 | 230 | 0.0 | 6.4 | 0.00 | 0.00 | 0.00 | 100 | 1007.0 |
| 20260507010037 | 13 | 225 | 1.6 | 8.0 | 0.00 | 0.00 | 0.00 | 100 | 1007.1 |
| 20260507004526 | 13 | 212 | 0.0 | 9.7 | 0.00 | 0.00 | 0.00 | 100 | 1007.4 |
| 20260507003002 | 12 | 218 | 0.0 | 9.7 | 0.00 | 0.00 | 0.00 | 100 | 1007.3 |
| 20260507001606 | 12 | 225 | 1.6 | 9.7 | 0.00 | 0.00 | 0.00 | 100 | 1007.1 |
| 20260507000043 | 12 | 222 | 3.2 | 8.0 | 0.00 | 0.00 | 0.00 | 100 | 1007.1 |
| 20260506234537 | 12 | 191 | 0.0 | 12.9 | 0.00 | 0.00 | 0.00 | 100 | 1007.1 |
| 20260506233012 | 12 | 207 | 4.8 | 24.1 | 0.00 | 0.00 | 0.00 | 100 | 1007.1 |
| 20260506231507 | 13 | 211 | 1.6 | 16.1 | 0.00 | 0.00 | 0.00 | 100 | 1007.1 |
| 20260506230057 | 13 | 242 | 3.2 | 12.9 | 0.00 | 0.00 | 0.00 | 100 | 1007.0 |
| 20260506224542 | 13 | 22 | 3.2 | 16.1 | 0.00 | 0.00 | 0.00 | 100 | 1007.0 |
| 20260506223020 | 12 | 218 | 0.0 | 16.1 | 0.00 | 0.00 | 0.00 | 100 | 1006.8 |
| 20260506221516 | 12 | 212 | 1.6 | 9.7 | 0.00 | 0.00 | 0.00 | 100 | 1007.0 |
| 20260506220056 | 13 | 238 | 3.2 | 12.9 | 0.00 | 0.00 | 0.00 | 100 | 1006.9 |
| 20260506214550 | 13 | 193 | 4.8 | 12.9 | 0.00 | 0.00 | 0.00 | 100 | 1007.0 |
| 20260506213032 | 13 | 237 | 3.2 | 11.3 | 0.00 | 0.00 | 0.00 | 100 | 1007.4 |
| 20260506211538 | 13 | 207 | 3.2 | 12.9 | 0.00 | 0.00 | 0.00 | 100 | 1007.5 |
| 20260506210003 | 13 | 250 | 1.6 | 12.9 | 0.00 | 0.00 | 0.00 | 100 | 1007.6 |
| 20260506204559 | 13 | 223 | 6.4 | 11.3 | 0.00 | 0.00 | 0.00 | 100 | 1007.7 |
| 20260506203054 | 13 | 221 | 1.6 | 17.7 | 0.00 | 0.00 | 0.00 | 100 | 1007.8 |
| 20260506201537 | 13 | 223 | 3.2 | 12.9 | 0.00 | 0.00 | 0.00 | 100 | 1008.0 |
| 20260506200032 | 13 | 240 | 6.4 | 16.1 | 0.00 | 0.00 | 0.00 | 100 | 1008.1 |
| 20260506194507 | 13 | 228 | 3.2 | 25.7 | 0.00 | 0.00 | 0.00 | 100 | 1008.3 |
| 20260506193002 | 14 | 204 | 0.0 | 11.3 | 0.00 | 0.00 | 0.00 | 100 | 1008.4 |
| 20260506191541 | 13 | 205 | 3.2 | 11.3 | 0.00 | 0.00 | 0.00 | 3 | 1008.3 |
| 20260506190036 | 14 | 245 | 3.2 | 12.9 | 0.00 | 0.00 | 0.00 | 21 | 1008.6 |
| 20260506184515 | 15 | 235 | 3.2 | 19.3 | 0.00 | 0.00 | 0.00 | 35 | 1008.8 |
| 20260506183010 | 15 | 254 | 6.4 | 19.3 | 0.00 | 0.00 | 0.00 | 54 | 1008.9 |
| 20260506181601 | 16 | 207 | 9.7 | 20.9 | 0.00 | 0.00 | 0.00 | 62 | 1009.0 |
| 20260506180045 | 16 | 231 | 6.4 | 20.9 | 0.00 | 0.00 | 0.00 | 63 | 1009.3 |
| 20260506174523 | 16 | 219 | 9.7 | 22.5 | 0.00 | 0.00 | 0.00 | 65 | 1009.3 |
| 20260506173023 | 17 | 224 | 9.7 | 20.9 | 0.00 | 0.00 | 0.00 | 65 | 1009.7 |
| 20260506171602 | 17 | 250 | 8.0 | 20.9 | 0.00 | 0.00 | 0.00 | 65 | 1010.0 |
| 20260506170106 | 17 | 246 | 9.7 | 24.1 | 0.00 | 0.00 | 0.00 | 67 | 1009.9 |
| 20260506164537 | 18 | 210 | 11.3 | 25.7 | 0.00 | 0.00 | 0.00 | 67 | 1010.0 |
| 20260506163035 | 18 | 253 | 8.0 | 24.1 | 0.00 | 0.00 | 0.00 | 67 | 1010.1 |
| 20260506161528 | 17 | 205 | 8.0 | 22.5 | 0.00 | 0.00 | 0.00 | 66 | 1010.4 |
| 20260506160024 | 17 | 224 | 9.7 | 25.7 | 0.00 | 0.00 | 0.00 | 68 | 1010.5 |
| 20260506154519 | 18 | 229 | 8.0 | 19.3 | 0.00 | 0.00 | 0.00 | 68 | 1010.7 |
| 20260506153021 | 18 | 210 | 14.5 | 30.6 | 0.00 | 0.00 | 0.00 | 68 | 1010.7 |
| 20260506151511 | 18 | 215 | 9.7 | 27.4 | 0.00 | 0.00 | 0.00 | 68 | 1010.6 |
| 20260506150014 | 18 | 257 | 6.4 | 20.9 | 0.00 | 0.00 | 0.00 | 68 | 1010.8 |
| 20260506144552 | 18 | 257 | 9.7 | 27.4 | 0.00 | 0.00 | 0.00 | 67 | 1010.9 |
| 20260506143040 | 17 | 234 | 8.0 | 20.9 | 0.00 | 0.00 | 0.00 | 65 | 1010.7 |
| 20260506141519 | 17 | 210 | 8.0 | 22.5 | 0.00 | 0.00 | 0.00 | 63 | 1010.8 |
| 20260506140019 | 16 | 226 | 6.4 | 27.4 | 0.00 | 0.00 | 0.00 | 63 | 1010.7 |
| 20260506134553 | 17 | 282 | 6.4 | 27.4 | 0.00 | 0.00 | 0.00 | 62 | 1010.5 |
| 20260506133101 | 16 | 235 | 11.3 | 24.1 | 0.00 | 0.00 | 0.00 | 63 | 1010.9 |
| 20260506131527 | 16 | 182 | 8.0 | 24.1 | 0.00 | 0.00 | 0.00 | 59 | 1011.0 |
| 20260506130124 | 16 | 164 | 3.2 | 17.7 | 0.00 | 0.00 | 0.00 | 52 | 1011.1 |
| 20260506124503 | 15 | 233 | 6.4 | 19.3 | 0.00 | 0.00 | 0.00 | 50 | 1011.1 |
| 20260506123058 | 15 | 263 | 3.2 | 14.5 | 0.00 | 0.00 | 0.00 | 44 | 1011.2 |
| 20260506121535 | 15 | 236 | 3.2 | 14.5 | 0.00 | 0.00 | 0.00 | 33 | 1011.2 |
| 20260506120032 | 14 | 132 | 1.6 | 11.3 | 0.00 | 0.00 | 0.00 | 27 | 1011.3 |
| 20260506114514 | 13 | 241 | 3.2 | 14.5 | 0.00 | 0.00 | 0.00 | 20 | 1011.3 |
| 20260506113011 | 13 | 225 | 0.0 | 11.3 | 0.00 | 0.00 | 0.00 | 14 | 1011.5 |
| 20260506111507 | 13 | 200 | 4.8 | 11.3 | 0.00 | 0.00 | 0.00 | 8 | 1011.5 |
| 20260506110001 | 12 | 199 | 0.0 | 8.0 | 0.00 | 0.00 | 0.00 | 7 | 1011.4 |
| 20260506104630 | 12 | 216 | 1.6 | 16.1 | 0.00 | 0.00 | 0.00 | 7 | 1011.4 |
| 20260506103053 | 12 | 205 | 1.6 | 8.0 | 0.00 | 0.00 | 0.00 | 4 | 1011.2 |
| 20260506101550 | 12 | 226 | 0.0 | 12.9 | 0.00 | 0.00 | 0.00 | 2 | 1011.1 |
| 20260506100046 | 12 | 237 | 0.0 | 8.0 | 0.00 | 0.00 | 0.00 | 2 | 1011.1 |
| 20260506094534 | 12 | 187 | 0.0 | 6.4 | 0.00 | 0.00 | 0.00 | 3 | 1011.2 |
| 20260506093024 | 12 | 185 | 3.2 | 8.0 | 0.00 | 0.00 | 0.00 | 4 | 1011.1 |
| 20260506091519 | 12 | 219 | 1.6 | 9.7 | 0.00 | 0.00 | 0.00 | 8 | 1011.2 |
| 20260506090015 | 12 | 173 | 1.6 | 9.7 | 0.00 | 0.00 | 0.00 | 8 | 1011.2 |
| 20260506084511 | 12 | 113 | 1.6 | 9.7 | 0.00 | 0.00 | 0.00 | 10 | 1011.4 |
| 20260506083018 | 12 | 238 | 0.0 | 4.8 | 0.00 | 0.00 | 0.00 | 14 | 1011.5 |
| 20260506081509 | 12 | 208 | 0.0 | 6.4 | 0.00 | 0.00 | 0.00 | 18 | 1011.6 |
| 20260506073040 | 13 | 220 | 1.6 | 8.0 | 0.00 | 0.00 | 0.00 | 24 | 1011.5 |
| 20260506071521 | 13 | 191 | 1.6 | 17.7 | 0.00 | 0.00 | 0.00 | 26 | 1011.4 |
| 20260506061528 | 13 | 224 | 1.6 | 12.9 | 0.00 | 0.00 | 0.00 | 32 | 1011.4 |
| 20260506044510 | 13 | 224 | 1.6 | 9.7 | 0.00 | 0.00 | 0.00 | 42 | 1012.2 |
| 20260506043011 | 13 | 171 | 1.6 | 8.0 | 0.00 | 0.00 | 0.00 | 47 | 1012.1 |
| 20260506041547 | 13 | 188 | 0.0 | 8.0 | 0.00 | 0.00 | 0.00 | 51 | 1012.1 |
| 20260506040048 | 13 | 217 | 0.0 | 6.4 | 0.00 | 0.00 | 0.00 | 57 | 1012.1 |
| 20260506034526 | 13 | 243 | 1.6 | 11.3 | 0.00 | 0.00 | 0.00 | 58 | 1012.1 |
| 20260506033026 | 14 | 173 | 0.0 | 9.7 | 0.00 | 0.00 | 0.00 | 62 | 1012.1 |
| 20260506031517 | 14 | 171 | 0.0 | 4.8 | 0.00 | 0.00 | 0.00 | 64 | 1012.1 |